Content
SEND FEEDBACK

Daily
Averages
Monthly
Summary
United States of America

EAST FALMOUTH, MASSACHUSETTS


Home > North America > United States > Massachusetts
Elevation: 70 feet     Latitude: 41 37N     Longitude: 070 32W

WEATHER
 
SELECT A DAY
Number of Records: 281,421;   Date Range: 1/1/95 - 12/26/14
 
SHARE

PRINT THIS DATA

[ ← Previous Day ]
WEATHER ALMANAC - MAY 1, 2013
[ Next Day → ]
[ °C ]   °F
Weather ElementAverageHighLow
Temperature49.6 °F62.6 °F (1:35 pm)33.8 °F (5:35 am)
Dewpoint41.5 °F46.4 °F (2:35 pm)32 °F (12:35 am)
Humidity75.7 %100 % (6:35 am)45 % (1:35 pm)
Barometer30.45 in30.48 in (10:35 am)30.37 in (12:35 am)
Wind Speed6.5 mph15 mph (11:35 am)
Wind Gust19.6 mph (11:55 am)
Weather ElementAverage
Visibility10 mi
Wind DirectionE (84.9 °)

Weather ElementTotal
Precipitation---
Heating Degree Days16.8 (Base 65)
Averaged from 71 records on May 1, 2013
WEATHER CONDITIONS BREAKOUT
WIND DIRECTION BREAKOUT
WEATHER BY HOUR - MAY 1, 2013
[ °C ]   °F
Local TimeTemperatureDewpointHumidityBarometerVisibilityWind DirectionWind SpeedGust SpeedPrecipitationEventsConditions
12:35 AM35.6 °F32.0 °F87 %30.37 in10.0 miNE (50°)3.5 mphClear
12:55 AM35.6 °F32.0 °F87 %30.38 in10.0 miCalmClear
1:15 AM35.6 °F32.0 °F87 %30.38 in10.0 miNE (50°)4.6 mphClear
1:35 AM37.4 °F32.0 °F81 %30.38 in10.0 miNE (50°)4.6 mphClear
1:55 AM35.6 °F32.0 °F87 %30.38 in10.0 miNE (40°)3.5 mphClear
2:15 AM35.6 °F32.0 °F87 %30.38 in10.0 miENE (60°)5.8 mphClear
2:35 AM37.4 °F35.6 °F93 %30.37 in10.0 miENE (60°)6.9 mphClear
2:55 AM37.4 °F33.8 °F87 %30.37 in10.0 miEast (80°)3.5 mphClear
3:15 AM35.6 °F32.0 °F87 %30.38 in10.0 miCalmClear
3:35 AM35.6 °F32.0 °F87 %30.39 in10.0 miNorth (350°)4.6 mphClear
3:55 AM39.2 °F37.4 °F93 %30.39 in10.0 miNorth (10°)5.8 mphClear
4:15 AM39.2 °F37.4 °F93 %30.39 in10.0 miNorth (10°)3.5 mphClear
4:35 AM39.2 °F37.4 °F93 %30.39 in10.0 miNE (40°)4.6 mphClear
4:55 AM37.4 °F35.6 °F93 %30.39 in10.0 miNNE (30°)3.5 mphClear
5:15 AM35.6 °F33.8 °F93 %30.39 in10.0 miNorth (10°)3.5 mphClear
5:35 AM33.8 °F32.0 °F93 %30.40 in10.0 miNNW (330°)3.5 mphClear
5:55 AM39.2 °F37.4 °F93 %30.41 in10.0 miNorth (10°)6.9 mphClear
6:15 AM37.4 °F35.6 °F93 %30.42 in10.0 miNorth (350°)3.5 mphClear
6:35 AM41.0 °F41.0 °F100 %30.43 in10.0 miNorth (10°)5.8 mphClear
6:55 AM44.6 °F41.0 °F87 %30.44 in10.0 miCalmClear
7:15 AM46.4 °F44.6 °F93 %30.45 in10.0 miNNE (20°)5.8 mphClear
7:35 AM48.2 °F44.6 °F87 %30.45 in10.0 miNorth (10°)5.8 mphClear
7:55 AM50.0 °F44.6 °F82 %30.45 in10.0 miNNE (30°)9.2 mphClear
8:15 AM53.6 °F44.6 °F72 %30.46 in10.0 miENE (70°)9.2 mphClear
8:35 AM53.6 °F44.6 °F72 %30.46 in10.0 miENE (60°)9.2 mphClear
8:55 AM53.6 °F44.6 °F72 %30.46 in10.0 miNE (40°)8.1 mphClear
9:15 AM55.4 °F44.6 °F67 %30.46 in10.0 miNE (40°)6.9 mphClear
9:35 AM57.2 °F44.6 °F63 %30.46 in10.0 miNE (50°)9.2 mphClear
9:55 AM57.2 °F44.6 °F63 %30.46 in10.0 miNE (40°)10.4 mphClear
10:15 AM57.2 °F44.6 °F63 %30.47 in10.0 miNE (50°)10.4 mphClear
10:35 AM59.0 °F44.6 °F59 %30.48 in10.0 miNE (50°)9.2 mphClear
10:55 AM59.0 °F44.6 °F59 %30.48 in10.0 miENE (60°)11.5 mphClear
11:15 AM59.0 °F44.6 °F59 %30.48 in10.0 miNE (50°)12.7 mphClear
11:35 AM59.0 °F44.6 °F59 %30.48 in10.0 miNE (50°)15.0 mphClear
11:55 AM59.0 °F44.6 °F59 %30.48 in10.0 miNNE (30°)12.7 mph19.6 mphClear
12:15 PM59.0 °F42.8 °F55 %30.47 in10.0 miENE (60°)13.8 mphClear
12:35 PM60.8 °F42.8 °F52 %30.48 in10.0 miNE (40°)11.5 mph17.3 mphClear
12:55 PM60.8 °F41.0 °F48 %30.47 in10.0 miENE (60°)10.4 mph16.1 mphClear
1:15 PM60.8 °F41.0 °F48 %30.47 in10.0 miENE (70°)12.7 mph18.4 mphClear
1:35 PM62.6 °F41.0 °F45 %30.47 in10.0 miNE (50°)15.0 mph19.6 mphClear
1:55 PM62.6 °F41.0 °F45 %30.46 in10.0 miNE (50°)8.1 mph16.1 mphClear
2:15 PM62.6 °F41.0 °F45 %30.46 in10.0 miENE (70°)5.8 mphClear
2:35 PM62.6 °F46.4 °F55 %30.46 in10.0 miSSE (160°)11.5 mphPartly Cloudy
2:55 PM60.8 °F46.4 °F59 %30.46 in10.0 miSSE (160°)11.5 mphPartly Cloudy
3:15 PM59.0 °F46.4 °F63 %30.46 in10.0 miSSE (150°)9.2 mph
3:35 PM59.0 °F46.4 °F63 %30.46 in10.0 miSE (140°)10.4 mphPartly Cloudy
3:55 PM59.0 °F46.4 °F63 %30.46 in10.0 miSE (140°)11.5 mphClear
4:15 PM59.0 °F46.4 °F63 %30.45 in10.0 miSE (140°)9.2 mphClear
4:35 PM59.0 °F46.4 °F63 %30.45 in10.0 miSSE (160°)8.1 mphClear
4:55 PM59.0 °F46.4 °F63 %30.45 in10.0 miSSE (150°)8.1 mphClear
5:15 PM57.2 °F46.4 °F67 %30.45 in10.0 miSSE (160°)8.1 mphClear
5:35 PM57.2 °F46.4 °F67 %30.45 in10.0 miSSE (160°)6.9 mphClear
5:55 PM57.2 °F46.4 °F67 %30.46 in10.0 miSSE (150°)6.9 mphClear
6:15 PM57.2 °F46.4 °F67 %30.46 in10.0 miSE (140°)6.9 mphClear
6:35 PM55.4 °F44.6 °F67 %30.47 in10.0 miSSE (150°)8.1 mphClear
6:55 PM53.6 °F44.6 °F72 %30.47 in10.0 miSSE (160°)6.9 mphClear
7:15 PM53.6 °F44.6 °F72 %30.47 in10.0 miSE (140°)5.8 mphClear
7:35 PM50.0 °F44.6 °F82 %30.47 in10.0 miSE (130°)4.6 mphClear
7:55 PM50.0 °F42.8 °F76 %30.47 in10.0 miSE (130°)5.8 mphClear
8:15 PM50.0 °F42.8 °F76 %30.48 in10.0 miSE (140°)4.6 mphClear
8:35 PM48.2 °F42.8 °F82 %30.48 in10.0 miSSE (150°)4.6 mphClear
8:55 PM48.2 °F44.6 °F87 %30.48 in10.0 miSSE (150°)4.6 mphClear
9:15 PM46.4 °F44.6 °F93 %30.48 in10.0 miSSE (160°)3.5 mphClear
9:35 PM46.4 °F44.6 °F93 %30.48 in10.0 miSouth (170°)3.5 mphClear
9:55 PM46.4 °F42.8 °F87 %30.48 in10.0 miCalmClear
10:15 PM44.6 °F42.8 °F93 %30.48 in10.0 miCalmClear
10:35 PM44.6 °F44.6 °F100 %30.47 in10.0 miCalmClear
10:55 PM44.6 °F42.8 °F93 %30.47 in10.0 miCalmPartly Cloudy
11:15 PM42.8 °F41.0 °F93 %30.47 in10.0 miSSE (150°)3.5 mphClear
11:35 PM42.8 °F41.0 °F93 %30.47 in10.0 miCalmClear
11:55 PM44.6 °F41.0 °F87 %30.47 in10.0 miCalmClear
Hourly data recorded from KFMH, located miles away from East Falmouth, Massachusetts







STORIES FROM OUR PARTNERS